Wind_Speed
71 76 84 89 87 87 87 86 88 86 84 81 84 83 79 82 81 81 80 81 80 74 76 76 77 79 72 68 67 67 63 63 66 67 64 65 65 63 64 64 65 65 64 63 65
65 70 75 82 86 91 93 94 97 97 93 89 87 86 86 84 85 81 85 87 86 79 79 82 83 84 80 77 69 67 65 65 74 73 70 67 68 69 66 65 68 63 64 65 63
64 67 72 77 77 85 89 90 99 98 97 97 97 95 92 91 91 89 88 90 87 83 84 87 87 87 85 82 75 72 62 71 71 70 65 69 70 70 69 64 70 61 65 68 66
55 60 65 71 74 78 84 88 95 98 98 97 100 100 99 93 94 92 95 96 96 90 85 82 84 87 89 86 86 79 68 73 72 75 70 71 69 72 65 67 66 61 64 63 66
51 55 59 63 69 75 77 83 87 88 92 93 94 96 97 98 90 92 90 94 99 100 95 90 87 87 88 89 93 80 77 77 74 79 78 74 71 71 68 72 63 62 63 64 65
43 48 52 57 62 67 71 78 82 86 88 89 91 95 96 94 90 91 90 90 95 98 96 98 94 97 92 87 87 83 78 77 77 76 71 70 74 67 70 71 64 64 63 67 66
40 45 50 54 57 61 66 70 74 75 80 84 89 93 93 82 85 87 97 98 95 99 98 99 99 101 96 92 84 80 79 80 80 76 72 78 68 71 72 69 63 64 67 69 68
49 51 53 55 57 61 66 69 72 74 77 80 84 86 83 83 85 83 93 98 98 96 97 96 101 99 95 93 92 91 80 71 69 76 77 80 60 67 72 68 63 66 70 64 63
58 60 62 64 66 70 71 72 74 76 78 79 81 83 80 84 84 87 87 92 100 90 93 100 99 94 93 90 85 77 68 68 67 68 76 78 69 64 71 65 64 67 66 61 60
67 69 72 74 75 77 79 82 84 84 83 84 84 81 81 81 82 84 93 91 95 93 94 93 94 92 89 81 73 74 78 77 74 77 83 75 64 68 75 70 66 66 66 60 58
71 73 75 80 83 87 88 93 95 94 94 93 91 89 85 84 81 83 93 94 97 98 92 86 91 76 76 80 82 85 87 83 79 79 82 76 69 65 69 70 68 65 61 60 56
75 79 83 87 92 94 96 100 104 107 104 106 103 98 96 94 85 84 89 96 95 93 92 94 78 67 79 81 81 80 78 75 76 75 77 77 72 65 65 66 63 61 61 57 55
80 85 91 95 99 101 105 108 109 114 115 112 112 109 107 102 96 95 91 91 90 90 86 82 58 82 82 79 75 70 66 71 76 78 76 74 68 61 62 63 59 60 59 55 55
75 80 85 91 98 103 107 109 106 107 113 116 120 115 113 114 108 104 98 96 90 86 85 82 73 75 74 66 65 62 72 73 69 67 63 68 54 57 62 57 57 58 56 54 52
77 84 91 95 98 100 102 100 96 95 89 97 113 125 122 115 112 114 109 106 97 93 90 69 67 63 63 56 64 64 73 71 64 59 56 55 39 53 56 56 59 54 50 51 49
86 91 94 95 93 96 98 96 95 95 98 97 96 102 116 124 120 116 116 114 105 99 90 82 76 77 65 71 67 70 65 57 53 52 43 41 34 50 58 55 50 49 50 47 45
89 89 88 87 85 80 76 75 75 76 84 87 91 102 104 106 118 120 121 114 114 104 94 88 77 71 65 61 59 53 49 48 45 40 30 37 33 53 52 43 44 46 44 43 30
82 74 68 64 62 62 60 56 58 60 64 64 71 74 85 101 106 113 122 125 115 110 103 94 82 69 62 57 54 52 52 45 39 31 34 35 35 51 40 36 40 40 34 24 21
72 64 56 52 51 50 50 49 50 52 55 58 58 59 68 80 95 111 118 125 122 117 109 101 88 79 70 66 62 54 43 46 32 22 36 31 38 44 33 35 34 25 18 19 22
63 59 52 46 43 40 42 42 42 45 51 52 52 57 60 69 78 88 109 122 127 122 110 100 91 77 74 72 63 53 49 30 23 26 31 37 42 43 28 26 20 15 18 19 22
56 53 49 42 38 33 34 33 36 38 42 44 48 52 55 62 67 74 89 111 122 122 111 103 94 86 79 61 57 50 37 31 24 31 40 41 37 38 28 19 14 16 19 23 22
53 48 44 40 34 30 27 27 29 32 35 38 41 44 49 55 62 67 78 92 115 120 115 108 97 88 70 67 62 55 43 35 30 39 42 38 38 30 17 19 18 20 20 22 20
51 45 40 37 30 27 23 22 24 26 28 32 35 37 45 52 57 62 70 79 97 116 115 111 103 89 80 68 62 49 40 35 29 36 34 35 38 21 25 24 22 23 20 22 16
49 43 38 35 28 23 20 17 19 20 24 26 30 32 38 45 50 55 65 73 86 110 114 108 96 88 77 62 57 50 43 39 33 36 35 34 31 28 30 28 23 20 20 22 15
50 45 39 34 28 22 18 15 14 16 20 23 25 27 32 38 45 53 61 69 81 102 111 103 93 87 75 64 60 53 49 44 37 37 35 40 32 34 31 24 22 17 21 21 15
52 48 42 35 30 22 17 13 12 13 15 18 20 23 27 33 42 48 53 63 77 93 108 103 94 87 79 66 63 56 50 43 44 43 44 43 37 32 30 28 23 17 27 21 15
56 52 45 36 30 24 17 14 10 10 11 13 17 19 23 32 38 43 49 58 73 89 104 103 95 88 81 67 66 60 53 47 48 45 46 45 43 37 33 27 26 17 31 21 15
Wind_Direction
238 238 237 238 239 240 238 242 241 243 247 247 249 247 248 248 251 251 254 254 255 257 259 258 260 259 261 264 263 259 261 265 273 272 276 280 281 285 287 287 288 289 296 296 296
243 243 240 241 243 242 245 244 241 242 246 247 246 245 249 248 249 249 250 254 257 257 258 258 260 262 261 261 264 265 263 264 271 274 275 280 282 284 287 287 286 294 297 295 295
247 246 245 245 245 244 246 247 241 246 245 248 248 249 248 248 250 250 250 252 256 256 258 258 259 260 262 263 265 265 266 266 270 273 277 281 284 286 284 288 284 295 293 294 298
248 248 249 248 248 249 246 245 245 248 250 253 251 248 249 253 249 253 254 253 255 253 251 254 260 260 260 260 263 265 265 267 267 273 277 280 282 280 284 283 283 293 290 292 296
253 253 251 250 249 248 248 248 247 248 250 252 252 251 251 253 256 252 253 255 255 255 252 248 254 256 258 258 260 265 266 264 267 273 276 277 272 276 284 280 289 291 288 291 293
253 252 253 255 255 253 252 251 249 249 250 250 250 251 252 253 253 253 253 255 254 255 256 254 254 254 253 259 263 264 264 267 270 273 272 272 269 278 275 281 291 289 287 290 294
261 260 256 252 251 249 250 250 251 251 251 251 250 250 248 250 251 254 252 251 253 256 256 256 254 255 256 258 258 261 263 265 269 267 267 264 269 272 274 281 283 285 285 289 292
266 263 260 258 256 254 250 248 248 248 250 250 249 249 248 249 251 250 250 251 252 254 255 257 257 258 259 257 258 263 268 269 266 264 262 263 265 272 270 277 281 280 283 287 291
268 265 260 259 259 258 254 253 251 248 247 247 248 248 246 246 248 250 250 250 250 253 255 254 256 258 259 260 259 265 270 264 260 257 257 261 264 266 271 274 276 276 282 289 292
264 262 257 255 256 255 254 253 251 247 247 247 244 243 242 242 243 247 248 248 250 249 250 252 255 258 259 259 261 257 256 258 258 258 262 266 268 263 266 268 275 280 285 287 289
263 261 260 258 257 254 254 252 250 246 246 245 243 243 240 238 239 242 248 248 248 251 250 250 253 258 255 254 254 257 262 263 262 260 265 271 272 264 267 273 275 279 281 284 285
272 271 268 263 261 258 255 251 251 248 245 244 243 241 240 239 235 237 242 247 248 249 249 248 252 254 254 253 254 257 261 261 257 258 263 265 268 267 268 269 275 274 277 282 282
274 271 272 270 266 263 259 254 252 251 249 248 250 245 242 240 237 237 236 241 244 246 249 251 247 245 250 252 257 259 259 256 259 260 264 266 269 268 267 267 272 271 274 276 278
278 274 271 268 266 264 262 262 261 257 250 247 249 250 246 244 240 236 234 236 240 245 245 245 245 250 251 254 256 258 254 254 258 265 269 272 270 264 261 262 263 264 268 274 279
284 277 272 270 269 270 269 270 269 267 264 257 250 248 247 246 245 240 237 236 235 238 242 243 242 246 250 252 251 251 257 261 269 273 272 274 270 258 254 252 255 262 269 271 274
288 286 285 283 280 277 275 273 269 267 262 258 254 251 247 245 245 241 239 239 234 234 237 237 236 239 240 245 248 254 264 270 271 271 272 258 244 249 247 249 252 259 262 266 271
298 296 291 287 283 279 274 270 267 262 257 255 250 248 246 244 243 239 241 240 238 234 234 236 235 236 239 246 252 257 262 265 264 266 245 239 240 245 246 246 248 253 254 263 270
308 303 298 292 286 281 278 271 265 259 255 249 246 241 241 239 238 237 234 236 236 235 231 230 231 233 237 240 245 243 247 256 264 262 219 229 217 242 242 240 244 247 254 258 278
315 310 304 296 288 282 276 270 263 258 253 250 246 241 234 233 231 230 231 233 232 232 229 229 229 228 228 229 234 238 243 243 261 243 221 218 192 236 225 231 239 241 252 265 273
320 315 309 304 296 287 277 271 264 256 250 246 242 236 231 231 228 225 225 226 227 228 231 227 226 225 227 228 232 238 238 259 257 228 213 199 207 233 219 221 225 242 250 266 278
325 319 313 310 305 295 283 273 260 250 247 244 240 235 231 229 228 222 220 221 222 223 223 224 224 224 226 230 233 236 238 238 231 208 203 202 211 215 217 217 230 240 257 275 272
331 326 320 316 314 304 291 275 262 252 244 239 236 233 232 227 225 221 218 218 216 219 219 221 220 223 221 223 223 225 227 231 215 203 209 209 215 209 204 225 233 246 261 261 260
335 332 327 323 325 312 300 278 261 251 244 240 235 228 226 223 222 220 216 215 213 214 215 217 218 219 220 221 224 225 231 229 212 208 210 214 219 204 224 230 243 259 247 248 259
345 342 338 331 334 322 307 286 269 256 244 236 230 223 219 218 218 216 214 212 207 209 210 213 213 218 218 215 219 220 226 226 218 200 201 217 219 214 224 235 250 237 240 238 238
356 353 350 340 338 333 320 300 271 253 242 233 225 219 215 215 213 213 212 208 203 205 205 204 207 213 212 213 215 214 218 217 209 198 208 219 214 225 238 246 237 234 230 233 221
2 0 358 351 344 342 326 309 281 251 239 232 226 217 214 213 211 212 209 206 202 200 201 200 204 208 210 209 212 212 214 216 207 209 212 224 224 227 234 239 242 241 217 215 219
8 6 3 359 350 346 337 318 294 266 228 219 226 216 210 211 208 206 205 203 200 196 197 198 200 204 209 207 207 209 211 207 202 209 219 227 221 229 237 241 252 235 211 203 209
Height
10751 10755 10757 10761 10764 10767 10771 10774 10778 10782 10786 10791 10795 10799 10802 10807 10809 10814 10815 10802 10809 10825 10830 10832 10830 10834 10841 10849 10854 10858 10867 10868 10862 10860 10863 10864 10865 10865 10866 10864 10861 10861 10864 10862 10857
10740 10742 10745 10749 10751 10754 10757 10760 10762 10766 10772 10776 10780 10783 10787 10790 10795 10803 10789 10793 10797 10812 10814 10816 10817 10818 10831 10837 10842 10845 10857 10858 10845 10850 10854 10854 10855 10853 10857 10856 10846 10853 10850 10850 10849
10727 10730 10732 10735 10736 10740 10741 10743 10747 10751 10754 10759 10763 10767 10771 10774 10780 10785 10782 10778 10782 10796 10796 10799 10803 10806 10817 10823 10829 10831 10851 10841 10842 10836 10847 10843 10843 10843 10844 10845 10837 10847 10841 10836 10835
10714 10714 10716 10718 10719 10722 10725 10727 10730 10733 10736 10741 10746 10750 10753 10758 10768 10769 10764 10760 10762 10771 10780 10781 10785 10790 10800 10808 10805 10824 10836 10829 10831 10824 10834 10832 10833 10826 10836 10831 10832 10837 10834 10830 10823
10704 10703 10703 10703 10703 10704 10706 10708 10711 10713 10717 10721 10725 10730 10732 10743 10756 10740 10745 10740 10744 10748 10762 10768 10772 10772 10782 10786 10790 10819 10821 10815 10821 10817 10820 10821 10816 10818 10821 10811 10826 10827 10822 10818 10814
10694 10692 10690 10689 10688 10688 10689 10689 10690 10692 10696 10699 10703 10709 10716 10734 10716 10716 10727 10725 10725 10727 10737 10749 10755 10754 10762 10777 10783 10794 10805 10807 10808 10808 10801 10806 10802 10814 10804 10804 10814 10812 10811 10807 10804
10681 10679 10677 10676 10674 10672 10671 10670 10671 10674 10675 10677 10682 10689 10699 10707 10692 10694 10708 10705 10703 10710 10720 10726 10729 10740 10753 10763 10775 10781 10791 10796 10800 10793 10792 10776 10803 10800 10794 10796 10805 10801 10798 10798 10795
10667 10664 10660 10657 10656 10655 10654 10653 10655 10656 10656 10656 10659 10666 10680 10677 10674 10673 10678 10690 10690 10691 10700 10704 10709 10727 10745 10752 10761 10766 10776 10785 10782 10775 10772 10760 10800 10788 10777 10787 10794 10790 10786 10788 10783
10650 10646 10642 10639 10637 10634 10633 10632 10635 10635 10636 10637 10640 10645 10654 10655 10653 10651 10662 10666 10664 10678 10682 10681 10694 10712 10724 10738 10746 10757 10766 10766 10763 10755 10748 10751 10782 10779 10765 10778 10785 10779 10777 10777 10773
10628 10624 10620 10616 10614 10611 10608 10609 10607 10608 10610 10612 10619 10626 10629 10632 10632 10630 10637 10644 10644 10655 10662 10671 10680 10697 10711 10719 10738 10733 10733 10739 10746 10740 10732 10747 10770 10767 10755 10767 10770 10767 10767 10767 10765
10604 10599 10594 10590 10585 10584 10582 10579 10577 10580 10583 10585 10592 10599 10605 10608 10615 10614 10615 10623 10627 10632 10649 10656 10660 10693 10691 10696 10705 10707 10718 10729 10729 10726 10722 10738 10750 10758 10752 10754 10758 10757 10755 10755 10755
10578 10571 10564 10558 10551 10548 10545 10542 10543 10549 10557 10552 10558 10573 10577 10580 10601 10597 10600 10600 10606 10617 10618 10634 10667 10669 10666 10674 10683 10696 10709 10715 10710 10714 10718 10722 10734 10743 10741 10741 10749 10746 10743 10744 10743
10551 10543 10532 10520 10514 10511 10505 10502 10508 10513 10528 10526 10531 10544 10549 10560 10574 10571 10581 10579 10586 10591 10608 10621 10661 10631 10644 10656 10671 10684 10691 10688 10694 10695 10707 10715 10726 10730 10729 10730 10736 10733 10733 10734 10733
10520 10510 10498 10487 10476 10471 10464 10465 10471 10475 10491 10494 10492 10504 10518 10531 10543 10545 10558 10562 10569 10580 10586 10605 10622 10630 10639 10654 10659 10671 10660 10668 10681 10690 10702 10701 10722 10717 10709 10720 10721 10720 10723 10724 10725
10490 10476 10459 10448 10443 10437 10430 10433 10436 10440 10454 10456 10467 10467 10480 10498 10508 10519 10526 10537 10555 10560 10567 10609 10609 10617 10627 10639 10637 10650 10647 10659 10674 10683 10689 10690 10706 10692 10691 10705 10703 10711 10715 10714 10714
10455 10441 10430 10418 10409 10403 10395 10397 10399 10403 10413 10412 10425 10429 10446 10463 10473 10491 10505 10516 10533 10542 10558 10574 10587 10591 10614 10616 10626 10636 10644 10654 10662 10668 10678 10673 10683 10673 10678 10689 10697 10701 10702 10705 10703
10427 10409 10392 10380 10368 10360 10358 10357 10360 10364 10363 10374 10382 10392 10405 10424 10441 10466 10476 10494 10512 10528 10548 10554 10573 10587 10597 10608 10617 10629 10635 10643 10649 10658 10664 10660 10670 10657 10670 10683 10688 10690 10694 10695 10696
10389 10372 10358 10347 10338 10330 10327 10329 10329 10331 10333 10343 10347 10360 10371 10388 10407 10429 10444 10460 10486 10509 10519 10537 10554 10576 10591 10604 10612 10619 10623 10634 10642 10648 10651 10651 10658 10652 10668 10678 10679 10683 10686 10688 10689
10359 10344 10333 10322 10314 10309 10305 10304 10304 10307 10311 10316 10327 10335 10344 10352 10368 10392 10412 10438 10460 10475 10498 10520 10542 10557 10573 10584 10594 10609 10626 10622 10638 10644 10645 10649 10650 10648 10664 10665 10672 10677 10680 10682 10682
10338 10323 10312 10302 10294 10290 10284 10285 10285 10287 10289 10297 10306 10313 10322 10331 10343 10365 10382 10404 10431 10457 10490 10510 10528 10547 10556 10567 10588 10606 10611 10628 10634 10638 10640 10644 10647 10647 10657 10663 10667 10671 10674 10676 10674
10323 10309 10297 10287 10280 10275 10271 10270 10269 10270 10274 10282 10289 10296 10305 10315 10327 10343 10357 10377 10409 10437 10474 10492 10513 10528 10542 10574 10586 10599 10613 10622 10626 10633 10635 10637 10641 10644 10650 10658 10663 10667 10671 10671 10667
10309 10297 10285 10275 10269 10263 10259 10257 10256 10258 10262 10267 10275 10284 10292 10302 10310 10325 10341 10356 10387 10419 10453 10470 10498 10517 10549 10556 10570 10586 10601 10612 10616 10622 10627 10630 10631 10642 10649 10651 10657 10662 10664 10664 10661
10300 10288 10276 10266 10260 10253 10250 10247 10247 10248 10253 10259 10266 10274 10280 10289 10299 10313 10327 10346 10372 10406 10435 10456 10483 10505 10525 10545 10562 10585 10598 10606 10612 10617 10623 10626 10625 10638 10643 10646 10652 10655 10657 10656 10656
10294 10281 10270 10259 10253 10247 10243 10241 10241 10244 10247 10251 10257 10264 10272 10280 10291 10304 10317 10334 10360 10386 10418 10448 10480 10502 10525 10545 10560 10577 10589 10595 10604 10612 10616 10619 10622 10633 10636 10641 10648 10650 10651 10651 10652
10289 10277 10265 10256 10250 10244 10240 10237 10236 10237 10241 10245 10252 10258 10265 10273 10283 10293 10307 10325 10346 10369 10411 10443 10470 10493 10514 10533 10548 10565 10574 10584 10595 10604 10608 10610 10618 10624 10631 10639 10644 10646 10647 10647 10650
10287 10273 10263 10254 10248 10243 10238 10235 10234 10234 10237 10242 10248 10254 10261 10268 10276 10289 10304 10323 10336 10365 10399 10431 10460 10480 10501 10522 10537 10554 10565 10579 10587 10593 10595 10600 10612 10622 10628 10635 10640 10642 10643 10644 10647
10288 10275 10262 10256 10248 10242 10238 10235 10233 10232 10235 10240 10245 10252 10258 10263 10273 10286 10300 10318 10336 10360 10391 10420 10448 10468 10490 10512 10525 10544 10556 10567 10577 10586 10591 10596 10606 10615 10622 10630 10634 10636 10638 10641 10644